Location: Kimberly
(42.5380°N, 114.3640°W)
Time: 22:52:55
(UTC-06:00)

Amateur Radio Satellites - All Passes

Search period start: 23 August 2017 22:22
Search period end: 24 August 2017 22:22
Location: Kimberly, 42.5380°N, 114.3640°W

Satellite Date Start Highest point End Downlink Frequencies (MHz)
Time Altitude Azimuth
Oscar 11 23 Aug 22:32:35 22:35:48 20° 267° (W) 22:39:02 .
UNISAT 6 23 Aug 22:41:32 22:44:44 20° 93° (E) 22:47:57 437.425
SO-50 23 Aug 22:47:44 22:51:42 31° 115° (ESE) 22:55:41 436.795
Max Valier Satellite 23 Aug 22:59:28 23:02:58 44° 261° (W) 23:06:29 145.860
PCSat 23 Aug 23:06:57 23:12:21 79° 118° (ESE) 23:17:48 145.827
FO-29 23 Aug 23:14:00 23:19:32 89° 106° (ESE) 23:24:43 435.910
TIGRISAT 23 Aug 23:14:57 23:19:03 41° 99° (E) 23:23:12 435.000
PRISM 23 Aug 23:20:41 23:24:24 32° 97° (E) 23:28:04 437.425
LO-87 23 Aug 23:31:29 23:34:49 38° 72° (ENE) 23:38:10 145.935 - 145.965
RS-15 23 Aug 23:31:38 23:38:08 17° 265° (W) 23:44:30 29.354- 29.394
EO-88 23 Aug 23:47:29 23:49:44 16° 267° (W) 23:52:00 145.990 - 145.960
VELOX 1 23 Aug 23:57:22 23:59:11 12° 61° (ENE) 00:01:02 145.980
ESTCUBE 1 24 Aug 00:02:32 00:06:59 62° 73° (ENE) 00:11:28 437.505/2401.250
UNISAT 6 24 Aug 00:17:33 00:21:33 38° 289° (WNW) 00:25:38 437.425
SO-50 24 Aug 00:28:03 00:32:07 32° 313° (NW) 00:36:11 436.795
EO-79 24 Aug 00:28:26 00:30:40 14° 91° (E) 00:32:52 145.935-145.965
QB50P2 24 Aug 00:28:43 00:31:16 16° 92° (E) 00:33:50 145.880/145.840
NO-84 24 Aug 00:45:08 00:47:40 25° 132° (SE) 00:50:08 435.350 FM
TIGRISAT 24 Aug 00:52:23 00:55:27 19° 294° (WNW) 00:58:34 435.000
PCSat 24 Aug 00:52:29 00:56:23 20° 318° (NW) 01:00:18 145.827
DUCHIFAT 1 24 Aug 00:53:26 00:56:37 21° 94° (E) 00:59:47 145.980
PRISM 24 Aug 00:56:20 00:59:29 21° 294° (WNW) 01:02:36 437.425
FO-29 24 Aug 01:01:28 01:03:42 13° 305° (NW) 01:05:53 435.910
LO-87 24 Aug 01:06:42 01:08:25 13° 268° (W) 01:10:08 145.935 - 145.965
SPROUT 24 Aug 01:12:07 01:16:22 88° 83° (E) 01:20:38 437.525
AIST 2D 24 Aug 01:16:11 01:19:41 54° 285° (WNW) 01:23:08 435.315
50 SAT 24 Aug 01:18:33 01:21:25 26° 70° (ENE) 01:24:18 437.505
DX 1 24 Aug 01:21:54 01:25:33 27° 67° (ENE) 01:29:14 434.975-435.025
M-CUBED/EXP-1 PRIME 24 Aug 01:29:14 01:33:33 78° 109° (ESE) 01:37:29 437.505
VELOX 1 24 Aug 01:30:35 01:35:01 74° 257° (WSW) 01:39:30 145.980
YUBILEINY 24 Aug 01:38:46 01:42:46 14° 55° (NE) 01:46:44 435.215
NANOSAT C BR1 24 Aug 01:39:39 01:43:51 80° 101° (E) 01:48:03 145.865
ESTCUBE 1 24 Aug 01:42:06 01:44:12 13° 270° (W) 01:46:18 437.505/2401.250
Oscar 19 24 Aug 01:46:53 01:48:29 11° 88° (E) 01:50:04 437.125/150
POLYITAN 1 24 Aug 01:47:43 01:51:56 75° 284° (WNW) 01:56:08 437.675
EO-79 24 Aug 02:02:38 02:06:42 50° 287° (WNW) 02:10:46 145.935-145.965
QB50P2 24 Aug 02:03:16 02:07:17 45° 288° (WNW) 02:11:18 145.880/145.840
BUGSAT 1 24 Aug 02:14:26 02:18:18 44° 99° (E) 02:22:10 437.445
NO-84 24 Aug 02:22:28 02:25:00 26° 329° (NNW) 02:27:28 435.350 FM
UKube-1 24 Aug 02:28:08 02:32:27 89° 71° (ENE) 02:36:48 .
DUCHIFAT 1 24 Aug 02:28:35 02:32:21 33° 290° (WNW) 02:36:06 145.980
BEESAT 24 Aug 02:43:04 02:46:01 17° 62° (ENE) 02:48:59 436.000
50 SAT 24 Aug 02:51:45 02:54:05 17° 266° (W) 02:56:25 437.505
DX 1 24 Aug 02:57:50 03:01:39 29° 264° (W) 03:05:28 434.975-435.025
M-CUBED/EXP-1 PRIME 24 Aug 03:05:39 03:07:13 12° 306° (NW) 03:08:45 437.505
ITUPSAT 1 24 Aug 03:18:15 03:22:31 34° 68° (ENE) 03:26:49 437.325
NANOSAT C BR1 24 Aug 03:18:23 03:18:55 10° 300° (WNW) 03:19:28 145.865
Oscar 19 24 Aug 03:23:13 03:28:27 87° 285° (WNW) 03:33:40 437.125/150
Gurwin Techsat 1B 24 Aug 03:25:22 03:30:40 65° 102° (ESE) 03:35:55 435.225
MOZHAYETS 4 24 Aug 03:31:19 03:35:30 37° 70° (ENE) 03:39:42
YUBILEINY 24 Aug 03:32:51 03:41:31 66° 78° (ENE) 03:50:08 435.215
AO-7 24 Aug 03:39:45 03:44:44 17° 89° (E) 03:49:42 .
BUGSAT 1 24 Aug 03:50:53 03:53:18 16° 296° (WNW) 03:55:44 437.445
CUBESAT XI-V 24 Aug 04:02:03 04:05:07 18° 63° (ENE) 04:08:13 437.345
BEESAT 24 Aug 04:18:38 04:23:19 59° 259° (W) 04:28:01 436.000
ITAMSAT 1 24 Aug 04:50:43 04:55:39 43° 99° (E) 05:00:34 435.822/435.867
KKS-1 24 Aug 04:53:27 04:57:08 26° 67° (ENE) 05:00:48 437.445
ITUPSAT 1 24 Aug 04:56:26 05:00:22 26° 265° (W) 05:04:21 437.325
Oscar 19 24 Aug 05:04:52 05:06:58 12° 303° (WNW) 05:09:05 437.125/150
Gurwin Techsat 1B 24 Aug 05:06:34 05:10:04 18° 299° (WNW) 05:13:34 435.225
MOZHAYETS 4 24 Aug 05:09:15 05:12:46 22° 267° (W) 05:16:18
STARS 24 Aug 05:21:57 05:25:17 21° 65° (ENE) 05:28:36 437.465
AO-7 24 Aug 05:30:16 05:38:39 84° 108° (ESE) 05:46:57 .
YUBILEINY 24 Aug 05:30:43 05:37:34 27° 279° (W) 05:44:24 435.215
BEESAT 3 24 Aug 05:32:28 05:36:27 80° 302° (WNW) 05:40:31 437.485
CUBESAT XI-V 24 Aug 05:37:31 05:42:04 53° 260° (W) 05:46:40 437.345
BEESAT 2 24 Aug 05:54:51 05:58:44 57° 120° (ESE) 06:02:43 435.950
AO-85 24 Aug 05:57:01 06:00:56 77° 303° (WNW) 06:04:52 145.980
PCSat 24 Aug 06:12:13 06:15:13 15° 37° (NE) 06:18:12 145.827
DOVE 4 24 Aug 06:12:28 06:15:49 21° 92° (E) 06:19:03 437.250
KKS-1 24 Aug 06:29:35 06:33:33 31° 263° (W) 06:37:32 437.445
ITAMSAT 1 24 Aug 06:30:44 06:34:52 25° 296° (WNW) 06:38:59 435.822/435.867
KAITUO 1B 24 Aug 06:46:46 06:47:08 10° 89° (E) 06:47:32 145.475/437.950
STARS 24 Aug 06:57:18 07:01:23 37° 262° (W) 07:05:29 437.465
NUDT-PHONESAT 24 Aug 07:11:32 07:14:22 20° 94° (E) 07:17:11 437.300
BEESAT 3 24 Aug 07:13:07 07:14:42 12° 323° (NW) 07:16:18 437.485
NO-84 24 Aug 07:17:22 07:19:59 29° 33° (NNE) 07:22:45 435.350 FM
SO-50 24 Aug 07:17:45 07:21:59 36° 49° (NE) 07:26:13 436.795
XW-2D 24 Aug 07:19:48 07:23:23 36° 98° (E) 07:26:57 145.860 - 145.880
LilacSat-2 24 Aug 07:20:22 07:24:01 38° 98° (E) 07:27:38 437.200
AO-7 24 Aug 07:24:12 07:30:28 25° 308° (NW) 07:36:43 .
CUTE-I 24 Aug 07:26:22 07:31:15 36° 97° (E) 07:36:06 437.470
XW-2B 24 Aug 07:30:52 07:34:36 47° 99° (E) 07:38:19 145.730 - 145.750
BEESAT 2 24 Aug 07:34:05 07:36:50 18° 318° (NW) 07:39:38 435.950
STRAND 1 24 Aug 07:40:28 07:45:18 44° 69° (ENE) 07:50:07 437.568
AO-85 24 Aug 07:41:03 07:42:02 11° 325° (NW) 07:43:01 145.980
DOVE 4 24 Aug 07:49:35 07:53:39 35° 290° (WNW) 07:57:31 437.250
XW-2C 24 Aug 07:50:05 07:53:57 86° 101° (ESE) 07:57:48 145.795 - 145.815
PCSat 24 Aug 07:54:10 07:59:37 72° 58° (ENE) 08:05:00 145.827
XW-2F 24 Aug 07:59:04 08:02:54 78° 284° (WNW) 08:06:43 145.980 - 146.000
CUTE 1.7 + AOD 2 24 Aug 08:12:31 08:16:11 27° 95° (E) 08:19:49 437.475
KAITUO 1B 24 Aug 08:17:44 08:21:29 57° 285° (WNW) 08:25:12 145.475/437.950
NUDT-PHONESAT 24 Aug 08:45:01 08:48:14 27° 290° (WNW) 08:51:27 437.300
XW-2A 24 Aug 08:46:36 08:49:36 28° 97° (E) 08:52:35 145.665 - 145.685
UWE-3 24 Aug 08:47:58 08:51:12 20° 94° (E) 08:54:28 435.000/436.395/437.385
HO-68 24 Aug 08:48:20 08:55:25 61° 102° (ESE) 09:02:29 435.675
SEEDS 24 Aug 08:52:34 08:56:41 46° 99° (E) 09:00:45 437.485
NO-84 24 Aug 08:54:43 08:57:19 26° 228° (SW) 09:00:04 435.350 FM
XW-2D 24 Aug 08:54:46 08:57:17 17° 294° (WNW) 08:59:47 145.860 - 145.880
LilacSat-2 24 Aug 08:55:31 08:57:59 16° 294° (WNW) 09:00:26 437.200
SO-50 24 Aug 08:58:25 09:02:19 28° 246° (WSW) 09:06:15 436.795
Tancredo 1 24 Aug 09:00:02 09:02:54 69° 145° (SE) 09:05:47 437.200
CUBEBUG 2 24 Aug 09:02:43 09:06:50 49° 99° (E) 09:11:03 437.445
XW-2B 24 Aug 09:06:28 09:08:22 13° 296° (WNW) 09:10:17 145.730 - 145.750
CUTE-I 24 Aug 09:06:36 09:11:11 30° 294° (WNW) 09:15:44 437.470
O/OREOS (USA 219) 24 Aug 09:12:37 09:16:24 28° 104° (ESE) 09:20:12 437.305
ZACube-1 24 Aug 09:18:44 09:22:17 24° 95° (E) 09:25:53 437.345
STRAND 1 24 Aug 09:20:41 09:24:39 23° 266° (W) 09:28:39 437.568
FO-29 24 Aug 09:25:00 09:31:59 46° 69° (ENE) 09:38:17 435.910
AAUSAT CUBESAT 2 24 Aug 09:26:22 09:30:26 49° 99° (E) 09:34:27 437.432
RS-15 24 Aug 09:32:50 09:39:42 17° 95° (E) 09:46:34 29.354- 29.394
AO-73 24 Aug 09:37:15 09:41:12 34° 97° (E) 09:45:12 145.935
PCSat 24 Aug 09:39:06 09:42:22 16° 256° (WSW) 09:45:37 145.827
ISS 24 Aug 09:39:08 09:42:14 41° 139° (SE) 09:45:21 437.550
UNISAT 6 24 Aug 09:41:24 09:44:26 19° 65° (ENE) 09:47:27 437.425
nSIGHT-1 24 Aug 09:42:19 09:45:28 47° 140° (SE) 09:48:37 .
CUTE 1.7 + AOD 2 24 Aug 09:48:18 09:51:57 27° 291° (WNW) 09:55:35 437.475
PRISM 24 Aug 10:10:28 10:13:56 26° 68° (ENE) 10:17:24 437.425
TIGRISAT 24 Aug 10:14:15 10:18:12 38° 71° (ENE) 10:22:08 435.000
Oscar 11 24 Aug 10:17:33 10:21:54 69° 101° (E) 10:26:14 .
XW-2A 24 Aug 10:19:55 10:22:06 16° 293° (WNW) 10:24:17 145.665 - 145.685
UWE-3 24 Aug 10:23:49 10:27:44 36° 289° (WNW) 10:31:44 435.000/436.395/437.385
SEEDS 24 Aug 10:29:16 10:31:59 17° 295° (WNW) 10:34:42 437.485
Max Valier Satellite 24 Aug 10:29:32 10:31:43 15° 92° (E) 10:33:54 145.860
Tancredo 1 24 Aug 10:35:58 10:38:16 21° 342° (NNW) 10:40:35 437.200
HO-68 24 Aug 10:36:49 10:42:40 28° 301° (WNW) 10:48:31 435.675
CUBEBUG 2 24 Aug 10:40:33 10:43:05 16° 295° (WNW) 10:45:39 437.445
M-CUBED/EXP-1 PRIME 24 Aug 10:42:45 10:45:08 14° 55° (NE) 10:47:32 437.505
O/OREOS (USA 219) 24 Aug 10:51:48 10:55:42 29° 301° (WNW) 10:59:40 437.305
ZACube-1 24 Aug 10:54:45 10:58:33 31° 290° (WNW) 11:02:25 437.345
AAUSAT CUBESAT 2 24 Aug 11:03:02 11:05:29 15° 296° (WNW) 11:07:54 437.432
FO-29 24 Aug 11:10:20 11:17:03 36° 264° (W) 11:23:12 435.910
EO-88 24 Aug 11:13:51 11:17:19 39° 98° (E) 11:20:46 145.990 - 145.960
AO-73 24 Aug 11:13:52 11:17:15 23° 293° (WNW) 11:20:40 145.935
ISS 24 Aug 11:15:48 11:18:47 31° 337° (NNW) 11:21:46 437.550
UNISAT 6 24 Aug 11:16:50 11:20:52 39° 262° (W) 11:24:53 437.425
nSIGHT-1 24 Aug 11:19:02 11:21:57 29° 338° (NNW) 11:24:51 .
EO-79 24 Aug 11:22:17 11:24:01 12° 62° (ENE) 11:25:45 145.935-145.965
QB50P2 24 Aug 11:22:36 11:24:44 14° 63° (ENE) 11:26:51 145.880/145.840
DELFI C3 24 Aug 11:31:02 11:35:00 71° 284° (WNW) 11:38:55 145.870
RS-15 24 Aug 11:37:46 11:49:52 72° 117° (ESE) 12:02:07 29.354- 29.394
PRISM 24 Aug 11:45:35 11:49:07 27° 264° (W) 11:52:41 437.425
DUCHIFAT 1 24 Aug 11:46:14 11:49:00 18° 65° (ENE) 11:51:47 145.980
AIST 2D 24 Aug 11:50:38 11:54:02 52° 74° (ENE) 11:57:27 435.315
TIGRISAT 24 Aug 11:51:58 11:55:01 19° 267° (W) 11:58:04 435.000
Oscar 11 24 Aug 11:55:39 11:57:28 12° 298° (WNW) 11:59:17 .
ESTCUBE 1 24 Aug 11:56:09 11:58:06 13° 90° (E) 12:00:03 437.505/2401.250
Max Valier Satellite 24 Aug 12:02:16 12:05:41 36° 288° (WNW) 12:09:06 145.860
Tancredo 1 24 Aug 12:12:36 12:14:12 14° 2° (N) 12:15:48 437.200
BEESAT 3 24 Aug 12:13:09 12:14:16 11° 36° (NE) 12:15:21 437.485
M-CUBED/EXP-1 PRIME 24 Aug 12:14:19 12:18:52 79° 252° (WSW) 12:23:34 437.505
LO-87 24 Aug 12:30:43 12:34:06 42° 99° (E) 12:37:28 145.935 - 145.965
NANOSAT C BR1 24 Aug 12:31:54 12:36:01 61° 75° (ENE) 12:40:09 145.865
POLYITAN 1 24 Aug 12:40:24 12:44:35 86° 76° (ENE) 12:48:47 437.675
AO-85 24 Aug 12:47:33 12:50:09 16° 41° (NE) 12:52:51 145.980
EO-88 24 Aug 12:48:35 12:50:38 14° 294° (WNW) 12:52:41 145.990 - 145.960
ISS 24 Aug 12:53:47 12:55:59 17° 357° (N) 12:58:12 437.550
EO-79 24 Aug 12:55:05 12:59:14 64° 259° (WSW) 13:03:25 145.935-145.965
QB50P2 24 Aug 12:55:55 13:00:03 57° 260° (W) 13:04:11 145.880/145.840
nSIGHT-1 24 Aug 12:56:55 12:59:05 16° 358° (N) 13:01:15 .
SPROUT 24 Aug 12:58:29 13:00:42 14° 91° (E) 13:02:54 437.525
Oscar 19 24 Aug 13:03:20 13:06:58 20° 62° (ENE) 13:10:38 437.125/150
BUGSAT 1 24 Aug 13:04:37 13:08:17 33° 70° (ENE) 13:11:56 437.445
Gurwin Techsat 1B 24 Aug 13:10:02 13:13:08 16° 59° (ENE) 13:16:13 435.225
DUCHIFAT 1 24 Aug 13:20:25 13:24:21 41° 261° (W) 13:28:19 145.980
VELOX 1 24 Aug 13:20:40 13:23:52 19° 93° (E) 13:27:03 145.980
ESTCUBE 1 24 Aug 13:30:49 13:35:20 65° 286° (WNW) 13:39:49 437.505/2401.250
Tancredo 1 24 Aug 13:47:35 13:50:04 25° 21° (NNE) 13:52:33 437.200
BEESAT 3 24 Aug 13:48:35 13:52:35 71° 56° (NE) 13:56:29 437.485
RS-15 24 Aug 13:51:48 14:03:22 44° 322° (NW) 14:14:56 29.354- 29.394
LO-87 24 Aug 14:05:39 14:07:09 12° 295° (WNW) 14:08:38 145.935 - 145.965
NANOSAT C BR1 24 Aug 14:10:46 14:12:07 11° 270° (W) 14:13:28 145.865
50 SAT 24 Aug 14:11:40 14:14:21 22° 96° (E) 14:17:01 437.505
BEESAT 2 24 Aug 14:11:49 14:15:42 42° 51° (NE) 14:19:31 435.950
UKube-1 24 Aug 14:15:58 14:18:10 14° 91° (E) 14:20:21 .
AO-85 24 Aug 14:26:41 14:31:01 79° 237° (WSW) 14:35:39 145.980
ISS 24 Aug 14:30:34 14:33:18 23° 17° (NNE) 14:36:01 437.550
SPROUT 24 Aug 14:32:47 14:36:54 52° 287° (WNW) 14:41:00 437.525
nSIGHT-1 24 Aug 14:33:31 14:36:16 25° 19° (NNE) 14:39:00 .
ITAMSAT 1 24 Aug 14:35:04 14:35:49 10° 55° (NE) 14:36:34 435.822/435.867
AO-7 24 Aug 14:39:05 14:45:55 29° 55° (NE) 14:52:46 .
BUGSAT 1 24 Aug 14:40:45 14:43:42 19° 266° (W) 14:46:40 437.445
Oscar 19 24 Aug 14:40:48 14:45:51 56° 260° (W) 14:50:57 437.125/150
YUBILEINY 24 Aug 14:43:34 14:47:33 14° 74° (ENE) 14:51:31 435.215
DX 1 24 Aug 14:44:36 14:48:45 43° 99° (E) 14:52:52 434.975-435.025
Gurwin Techsat 1B 24 Aug 14:47:07 14:52:25 76° 257° (WSW) 14:57:46 435.225
VELOX 1 24 Aug 14:56:21 15:00:28 39° 290° (WNW) 15:04:33 145.980
Tancredo 1 24 Aug 15:22:33 15:25:19 44° 219° (SW) 15:28:04 437.200
BEESAT 3 24 Aug 15:28:57 15:29:31 10° 252° (WSW) 15:30:05 437.485
50 SAT 24 Aug 15:44:24 15:46:52 20° 292° (WNW) 15:49:21 437.505
BEESAT 2 24 Aug 15:50:17 15:53:08 19° 249° (WSW) 15:55:57 435.950
UKube-1 24 Aug 15:50:18 15:54:31 54° 287° (WNW) 15:58:42 .
ISS 24 Aug 16:06:48 16:10:03 76° 217° (SW) 16:13:18 437.550
ITAMSAT 1 24 Aug 16:09:11 16:14:21 73° 74° (ENE) 16:19:33 435.822/435.867
nSIGHT-1 24 Aug 16:09:39 16:12:53 67° 217° (SW) 16:16:05 .
RS-15 24 Aug 16:10:42 16:20:19 25° 355° (N) 16:29:46 29.354- 29.394
BEESAT 24 Aug 16:18:06 16:22:22 32° 97° (E) 16:26:37 436.000
DX 1 24 Aug 16:21:36 16:24:36 19° 296° (WNW) 16:27:36 434.975-435.025
AO-7 24 Aug 16:29:41 16:38:01 71° 254° (WSW) 16:46:24 .
YUBILEINY 24 Aug 16:33:59 16:42:43 75° 94° (E) 16:51:27 435.215
ITUPSAT 1 24 Aug 16:54:59 16:59:46 74° 103° (ESE) 17:04:33 437.325
MOZHAYETS 4 24 Aug 17:02:00 17:06:38 82° 102° (ESE) 17:11:16
DOVE 4 24 Aug 17:17:24 17:21:48 28° 68° (ENE) 17:26:04 437.250
CUBESAT XI-V 24 Aug 17:33:19 17:37:39 36° 97° (E) 17:41:57 437.345
ITAMSAT 1 24 Aug 17:51:41 17:54:21 14° 270° (W) 17:57:00 435.822/435.867
NUDT-PHONESAT 24 Aug 17:53:15 17:54:11 11° 63° (ENE) 17:55:05 437.300
BEESAT 24 Aug 17:55:59 18:00:02 28° 293° (WNW) 18:04:04 436.000
XW-2D 24 Aug 18:02:07 18:04:54 20° 67° (ENE) 18:07:42 145.860 - 145.880
LilacSat-2 24 Aug 18:03:16 18:06:09 21° 68° (ENE) 18:09:05 437.200
XW-2B 24 Aug 18:12:56 18:16:02 25° 69° (ENE) 18:19:10 145.730 - 145.750
KKS-1 24 Aug 18:19:10 18:23:24 44° 99° (E) 18:27:37 437.445
RS-15 24 Aug 18:26:54 18:37:49 36° 30° (NNE) 18:48:16 29.354- 29.394
AO-7 24 Aug 18:28:42 18:32:11 13° 273° (W) 18:35:40 .
XW-2C 24 Aug 18:31:43 18:35:16 42° 73° (ENE) 18:38:52 145.795 - 145.815
YUBILEINY 24 Aug 18:33:30 18:40:24 25° 295° (WNW) 18:47:19 435.215
ITUPSAT 1 24 Aug 18:34:37 18:36:58 14° 300° (WNW) 18:39:21 437.325
XW-2F 24 Aug 18:40:08 18:43:45 51° 74° (ENE) 18:47:26 145.980 - 146.000
MOZHAYETS 4 24 Aug 18:41:26 18:43:07 12° 300° (WNW) 18:44:48
STARS 24 Aug 18:45:37 18:49:36 34° 98° (E) 18:53:35 437.465
CUTE-I 24 Aug 18:48:38 18:53:54 64° 72° (ENE) 18:59:12 437.470
DOVE 4 24 Aug 18:54:25 18:59:17 38° 263° (W) 19:04:02 437.250
KAITUO 1B 24 Aug 18:57:46 19:01:27 68° 75° (ENE) 19:05:11 145.475/437.950
CUTE 1.7 + AOD 2 24 Aug 19:06:02 19:09:14 21° 67° (ENE) 19:12:28 437.475
CUBESAT XI-V 24 Aug 19:11:01 19:14:50 25° 294° (WNW) 19:18:38 437.345
HO-68 24 Aug 19:17:26 19:24:12 49° 66° (ENE) 19:31:00 435.675
XW-2A 24 Aug 19:20:12 19:21:18 11° 65° (ENE) 19:22:24 145.665 - 145.685
O/OREOS (USA 219) 24 Aug 19:21:03 19:25:35 61° 65° (ENE) 19:30:05 437.305
NUDT-PHONESAT 24 Aug 19:23:58 19:27:33 56° 260° (W) 19:31:12 437.300
XW-2D 24 Aug 19:35:37 19:38:54 28° 264° (W) 19:42:14 145.860 - 145.880
LilacSat-2 24 Aug 19:37:03 19:40:17 27° 264° (W) 19:43:34 437.200
SEEDS 24 Aug 19:44:39 19:48:26 34° 70° (ENE) 19:52:16 437.485
UWE-3 24 Aug 19:46:13 19:48:59 18° 66° (ENE) 19:51:45 435.000/436.395/437.385
XW-2B 24 Aug 19:47:11 19:50:09 22° 265° (W) 19:53:11 145.730 - 145.750
STRAND 1 24 Aug 19:51:44 19:54:20 14° 90° (E) 19:56:56 437.568
KKS-1 24 Aug 19:56:33 19:59:38 19° 296° (WNW) 20:02:42 437.445
CUBEBUG 2 24 Aug 20:01:23 20:05:23 43° 72° (ENE) 20:09:19 437.445
XW-2C 24 Aug 20:07:51 20:09:40 13° 269° (W) 20:11:31 145.795 - 145.815
ZACube-1 24 Aug 20:15:42 20:18:41 20° 66° (ENE) 20:21:43 437.345
AAUSAT CUBESAT 2 24 Aug 20:16:49 20:20:36 35° 71° (ENE) 20:24:25 437.432
XW-2F 24 Aug 20:17:09 20:18:12 11° 270° (W) 20:19:15 145.980 - 146.000
STARS 24 Aug 20:22:21 20:25:45 22° 294° (WNW) 20:29:07 437.465
CUTE-I 24 Aug 20:31:00 20:34:23 17° 269° (W) 20:37:47 437.470
AO-73 24 Aug 20:33:37 20:37:06 27° 69° (ENE) 20:40:36 145.935
RS-15 24 Aug 20:39:56 20:52:05 90° 51° (NE) 21:03:31 29.354- 29.394
CUTE 1.7 + AOD 2 24 Aug 20:40:58 20:44:50 35° 263° (W) 20:48:46 437.475
XW-2A 24 Aug 20:50:29 20:53:39 40° 261° (W) 20:56:49 145.665 - 145.685
O/OREOS (USA 219) 24 Aug 21:02:14 21:04:25 13° 262° (W) 21:06:37 437.305
HO-68 24 Aug 21:05:46 21:12:05 34° 264° (W) 21:18:28 435.675
Oscar 11 24 Aug 21:12:35 21:16:46 55° 74° (ENE) 21:21:00 .
SEEDS 24 Aug 21:21:00 21:24:11 21° 267° (W) 21:27:25 437.485
UWE-3 24 Aug 21:21:13 21:25:09 40° 262° (W) 21:29:04 435.000/436.395/437.385
STRAND 1 24 Aug 21:28:56 21:34:01 71° 287° (WNW) 21:39:05 437.568
CUBEBUG 2 24 Aug 21:39:36 21:42:12 16° 268° (W) 21:44:47 437.445
ZACube-1 24 Aug 21:50:59 21:54:45 34° 263° (W) 21:58:34 437.345
EO-88 24 Aug 21:52:40 21:55:18 19° 68° (ENE) 21:57:57 145.990 - 145.960
AAUSAT CUBESAT 2 24 Aug 21:53:03 21:56:08 20° 267° (W) 21:59:14 437.432
AO-73 24 Aug 22:09:54 22:13:17 24° 265° (W) 22:16:42 145.935
